Вернуться в каталог

STARLINK-36728

АктивенСвязьVLEO
NORAD 67927·PAYLOAD·🇺🇸 United States

Запущен Feb 22, 2026 с Vandenberg Space Force Base

Loading…

Ближайшие Пролёты (ближайшие 24 часа)

TLE

СвежийSource: CelesTrak SupGP

Эпоха: Sep 15, 2026, 04:05 UTC

1 67927C 26036Z   26258.17062500 -.00031885  00000+0 -11552-2 0  2582
2 67927  43.0024 255.0684 0001312 265.1654  33.7451 15.27585988    14

Отслеживайте STARLINK-36728 в реальном времени с AllMySat

Download on the App Store